Regional Weather Roundup
Issued by NWS

Home | Current Version | Previous Version | Graphics & Text | Print | Product List | Glossary On
Versions: 1 2 3 4 5 6 7 8 9 10 11 12 13 14 15 16 17 18 19 20 21 22 23 24 25 26 27 28 29 30 31 32 33 34 35 36 37 38 39 40 41 42 43 44 45 46 47 48 49 50
000
ASUS45 KSLC 080310
RWRUT

UTAH REGIONAL WEATHER ROUNDUP
NATIONAL WEATHER SERVICE SALT LAKE CITY UT
800 PM MST SUN FEB 07 2016

UTZ001>011-023>025-080400-

NORTHERN UTAH

CITY           SKY/WX    TMP DP  RH WIND       PRES   REMARKS
BRIGHAM CITY     N/A     23  21  92 CALM      30.65R VSB 3/4
HILL AFB       CLEAR     30  22  70 NE3       30.62R
LOGAN          FOG       16  14  92 CALM      30.64R VSB 1/2
OGDEN          CLEAR     28  24  85 CALM      30.63R
PROVO AIRPORT  CLEAR     21  18  86 VRB3      30.64R
SALT LAKE CITY PTCLDY    31  26  82 NW9       30.63R HAZE    WCI  23
VERNAL         CLOUDY    14   9  80 CALM      30.53S
WENDOVER       PTCLDY    32  25  74 W3        30.64R
HEBER CITY     PTCLDY    16  12  86 CALM      30.57R
WEST JORDAN    CLEAR     30  27  86 CALM      30.63R

$$

UTZ012>022-026-027-080400-

SOUTHERN/CENTRAL UTAH

CITY           SKY/WX    TMP DP  RH WIND       PRES   REMARKS
BLANDING       PTCLDY    32  18  57 NW9       30.50S WCI  24
BRYCE CANYON   PTCLDY    28  10  46 SW5       30.53R WCI  23
CEDAR CITY     PTCLDY    24  17  74 CALM      30.53R
DELTA          MOCLDY    15  13  94 NE3       30.62S
HANKSVILLE     PTCLDY    21  19  93 CALM      30.56F
MILFORD        MOCLDY    15  32 100 NE7       30.58S WCI   5
MOAB/CYNLANDS  PTCLDY    16  12  84 CALM      30.52S
PRICE          CLEAR     20  13  74 N6        30.48S WCI  12
ST GEORGE      PTCLDY    52  19  28 NE8       30.45R
KANAB          CLEAR     39  23  52 CALM      30.48R

$$

REGIONAL REPORTS     COLORADO/ARIZONA

CITY           SKY/WX    TMP DP  RH WIND       PRES   REMARKS
CRAIG, CO      CLOUDY     7   2  80 CALM      30.53R
GRAND JUNCTION CLOUDY    19  15  84 E5        30.53R WCI  12
RIFLE          CLOUDY    19  11  70 CALM      30.53R
MONTROSE       CLOUDY    22  16  78 SE6       30.54R WCI  14
CORTEZ         CLOUDY    32  20  61 CALM      30.41R
PAGE, AZ       CLEAR     36  23  59 SE3       30.47R
GRAND CANYON   CLEAR     29  19  66 CALM      30.45F
KINGMAN        CLEAR     49  24  37 E9        30.33S
FLAGSTAFF      CLEAR     39  16  39 NE17      30.41F WCI  30

$$

REGIONAL REPORTS    NEVADA/IDAHO/WYOMING

CITY           SKY/WX    TMP DP  RH WIND       PRES   REMARKS
LAS VEGAS, NV  CLEAR     63  21  20 NE6       30.32R
ELY            PTCLDY    18  12  77 S13       30.58R WCI   5
ELKO           PTCLDY    21  15  78 E3        30.64R
POCATELLO, ID  FOG       25  24  96 E3        30.66R VSB 1/4
BURLEY         CLEAR     29  27  92 N3        30.62R
EVANSTON, WY   CLOUDY    27  15  61 SW6       30.56S WCI  20
ROCK SPRINGS   CLOUDY    28  18  66 W23       30.48R WCI  14

$$



USA.gov is the U.S. government's official web portal to all federal, state and local government web resources and services.